Time,TemperatureF,DewpointF,PressureIn,WindDirection,WindDirectionDegrees,WindSpeedMPH,WindSpeedGustMPH,Humidity,HourlyPrecipIn,Conditions,Clouds,dailyrainin,SoftwareType,DateUTC
2013-12-13 00:00:00,22.0,22.0,30.48,WSW,247,2.3,2.3,100,0.00,,SKC,0.00,WeatherDisplay:10.37,2013-12-13 05:00:00,
2013-12-13 00:01:00,22.0,22.0,30.48,WSW,247,2.3,2.3,100,0.00,,SKC,0.00,WeatherDisplay:10.37,2013-12-13 05:01:00,
2013-12-13 00:02:00,22.0,22.0,30.48,WSW,247,2.3,2.3,100,0.00,,SKC,0.00,WeatherDisplay:10.37,2013-12-13 05:02:00,
2013-12-13 00:07:00,22.0,21.8,30.48,WSW,247,0.0,0.0,99,0.00,CLR,SKC,0.00,WeatherDisplay:10.37,2013-12-13 05:07:00,
2013-12-13 00:12:00,22.0,22.0,30.48,WSW,247,0.0,0.0,100,0.00,,SKC,0.00,WeatherDisplay:10.37,2013-12-13 05:12:00,
2013-12-13 00:17:00,22.0,22.0,30.48,WSW,247,3.0,3.0,100,0.00,,SKC,0.00,WeatherDisplay:10.37,2013-12-13 05:17:00,
2013-12-13 00:22:00,22.0,22.0,30.48,WSW,247,2.3,2.3,100,0.00,,SKC,0.00,WeatherDisplay:10.37,2013-12-13 05:22:00,
2013-12-13 00:27:00,23.0,23.0,30.47,WSW,247,1.2,1.2,100,0.00,,SKC,0.00,WeatherDisplay:10.37,2013-12-13 05:27:00,
2013-12-13 00:32:00,22.0,22.0,30.47,WSW,247,2.3,2.3,100,0.00,,SKC,0.00,WeatherDisplay:10.37,2013-12-13 05:32:00,
2013-12-13 00:37:00,22.0,22.0,30.47,WSW,247,3.5,3.5,100,0.00,,SKC,0.00,WeatherDisplay:10.37,2013-12-13 05:37:00,
2013-12-13 00:42:00,22.0,22.0,30.47,WSW,247,2.3,2.3,100,0.00,,SKC,0.00,WeatherDisplay:10.37,2013-12-13 05:42:00,
2013-12-13 00:47:00,22.0,22.0,30.47,WSW,247,0.0,0.0,100,0.00,,SKC,0.00,WeatherDisplay:10.37,2013-12-13 05:47:00,
2013-12-13 00:52:00,22.0,22.0,30.47,WSW,247,2.3,2.3,100,0.00,,SKC,0.00,WeatherDisplay:10.37,2013-12-13 05:52:00,
2013-12-13 00:57:00,22.0,22.0,30.47,WSW,247,3.5,3.5,100,0.00,,SKC,0.00,WeatherDisplay:10.37,2013-12-13 05:57:00,
2013-12-13 01:02:00,22.0,22.0,30.47,WSW,247,2.3,0.0,100,0.00,,SKC,0.00,WeatherDisplay:10.37,2013-12-13 06:02:00,
2013-12-13 01:07:00,22.0,22.0,30.48,WSW,247,3.5,3.5,100,0.00,,SKC,0.00,WeatherDisplay:10.37,2013-12-13 06:07:00,
2013-12-13 01:12:00,22.0,22.0,30.48,WSW,247,2.3,2.3,100,0.00,,SKC,0.00,WeatherDisplay:10.37,2013-12-13 06:12:00,
2013-12-13 01:17:00,22.0,22.0,30.48,WSW,247,3.0,3.0,100,0.00,,SKC,0.00,WeatherDisplay:10.37,2013-12-13 06:17:00,
2013-12-13 01:22:00,21.0,21.0,30.48,WSW,247,3.5,3.5,100,0.00,,SKC,0.00,WeatherDisplay:10.37,2013-12-13 06:22:00,
2013-12-13 01:27:00,21.0,21.0,30.48,WSW,247,1.2,1.2,100,0.00,,SKC,0.00,WeatherDisplay:10.37,2013-12-13 06:27:00,
2013-12-13 01:32:00,21.0,21.0,30.48,WSW,247,0.0,0.0,100,0.00,,SKC,0.00,WeatherDisplay:10.37,2013-12-13 06:32:00,
2013-12-13 01:37:00,21.0,21.0,30.48,WSW,247,2.3,2.3,100,0.00,,SKC,0.00,WeatherDisplay:10.37,2013-12-13 06:37:00,
2013-12-13 01:42:00,21.0,21.0,30.48,WSW,247,2.3,2.3,100,0.00,,SKC,0.00,WeatherDisplay:10.37,2013-12-13 06:42:00,
2013-12-13 01:47:00,22.0,22.0,30.48,WSW,247,1.2,1.2,100,0.00,,SKC,0.00,WeatherDisplay:10.37,2013-12-13 06:47:00,
2013-12-13 01:52:00,22.0,22.0,30.48,WSW,247,0.0,0.0,100,0.00,,SKC,0.00,WeatherDisplay:10.37,2013-12-13 06:52:00,
2013-12-13 01:57:00,22.0,22.0,30.48,WSW,247,2.3,2.3,100,0.00,,SKC,0.00,WeatherDisplay:10.37,2013-12-13 06:57:00,
2013-12-13 02:02:00,22.0,22.0,30.48,WSW,247,3.5,3.5,100,0.00,,SKC,0.00,WeatherDisplay:10.37,2013-12-13 07:02:00,
2013-12-13 02:07:00,22.0,22.0,30.48,WSW,247,3.5,3.5,100,0.00,,SKC,0.00,WeatherDisplay:10.37,2013-12-13 07:07:00,
2013-12-13 02:12:00,21.0,21.0,30.48,WSW,247,1.0,1.0,100,0.00,,SKC,0.00,WeatherDisplay:10.37,2013-12-13 07:12:00,
2013-12-13 02:17:00,21.0,21.0,30.48,WSW,247,0.0,0.0,100,0.00,,SKC,0.00,WeatherDisplay:10.37,2013-12-13 07:17:00,
2013-12-13 02:22:00,21.0,21.0,30.48,WSW,247,0.0,0.0,100,0.00,,SKC,0.00,WeatherDisplay:10.37,2013-12-13 07:22:00,
2013-12-13 02:27:00,21.0,21.0,30.48,WSW,247,0.0,0.0,100,0.00,,SKC,0.00,WeatherDisplay:10.37,2013-12-13 07:27:00,
2013-12-13 02:32:00,21.0,21.0,30.48,WSW,247,3.5,3.5,100,0.00,,SKC,0.00,WeatherDisplay:10.37,2013-12-13 07:32:00,
2013-12-13 02:37:00,22.0,22.0,30.48,WSW,247,3.5,3.5,100,0.00,,SKC,0.00,WeatherDisplay:10.37,2013-12-13 07:37:00,
2013-12-13 02:42:00,21.0,21.0,30.48,WSW,247,2.3,2.3,100,0.00,,SKC,0.00,WeatherDisplay:10.37,2013-12-13 07:42:00,
2013-12-13 02:47:00,21.0,21.0,30.48,WSW,247,1.0,1.0,100,0.00,,SKC,0.00,WeatherDisplay:10.37,2013-12-13 07:47:00,
2013-12-13 02:52:00,21.0,21.0,30.48,WSW,247,1.2,0.0,100,0.00,,SKC,0.00,WeatherDisplay:10.37,2013-12-13 07:52:00,
2013-12-13 02:57:00,22.0,22.0,30.48,WSW,247,1.2,1.2,100,0.00,,SKC,0.00,WeatherDisplay:10.37,2013-12-13 07:57:00,
2013-12-13 03:02:00,22.0,22.0,30.48,WSW,247,2.3,2.3,100,0.00,,SKC,0.00,WeatherDisplay:10.37,2013-12-13 08:02:00,
2013-12-13 03:07:00,22.0,22.0,30.48,WSW,247,1.2,1.2,100,0.00,,SKC,0.00,WeatherDisplay:10.37,2013-12-13 08:07:00,
2013-12-13 03:12:00,21.0,21.0,30.48,WSW,247,3.5,3.5,100,0.00,,SKC,0.00,WeatherDisplay:10.37,2013-12-13 08:12:00,
2013-12-13 03:17:00,21.0,21.0,30.48,WSW,247,2.3,2.3,100,0.00,,SKC,0.00,WeatherDisplay:10.37,2013-12-13 08:17:00,
2013-12-13 03:22:00,21.0,21.0,30.48,WSW,247,3.5,3.5,100,0.00,,SKC,0.00,WeatherDisplay:10.37,2013-12-13 08:22:00,
2013-12-13 03:27:00,21.0,21.0,30.48,WSW,247,3.5,3.5,100,0.00,,SKC,0.00,WeatherDisplay:10.37,2013-12-13 08:27:00,
2013-12-13 03:32:00,21.0,21.0,30.48,WSW,247,1.2,0.0,100,0.00,,SKC,0.00,WeatherDisplay:10.37,2013-12-13 08:32:00,
2013-12-13 03:37:00,21.0,21.0,30.47,WSW,247,0.0,0.0,100,0.00,,SKC,0.00,WeatherDisplay:10.37,2013-12-13 08:37:00,
2013-12-13 03:42:00,21.0,21.0,30.47,WSW,247,3.0,3.0,100,0.00,,SKC,0.00,WeatherDisplay:10.37,2013-12-13 08:42:00,
2013-12-13 03:47:00,21.0,21.0,30.48,WSW,247,3.5,3.5,100,0.00,,SKC,0.00,WeatherDisplay:10.37,2013-12-13 08:47:00,
2013-12-13 03:52:00,22.0,22.0,30.48,WSW,247,3.5,3.5,100,0.00,,SKC,0.00,WeatherDisplay:10.37,2013-12-13 08:52:00,
2013-12-13 03:57:00,22.0,22.0,30.48,WSW,247,3.5,3.5,100,0.00,,SKC,0.00,WeatherDisplay:10.37,2013-12-13 08:57:00,
2013-12-13 04:02:00,22.0,22.0,30.48,WSW,247,3.5,3.5,100,0.00,,SKC,0.00,WeatherDisplay:10.37,2013-12-13 09:02:00,
2013-12-13 04:07:00,22.0,22.0,30.48,WSW,247,3.5,3.5,100,0.00,,SKC,0.00,WeatherDisplay:10.37,2013-12-13 09:07:00,
2013-12-13 04:12:00,21.0,21.0,30.48,WSW,247,4.0,4.0,100,0.00,,SKC,0.00,WeatherDisplay:10.37,2013-12-13 09:12:00,
2013-12-13 04:17:00,21.0,21.0,30.48,WSW,247,3.5,3.5,100,0.00,,SKC,0.00,WeatherDisplay:10.37,2013-12-13 09:17:00,
2013-12-13 04:22:00,20.0,20.0,30.48,WSW,247,2.3,2.3,100,0.00,,SKC,0.00,WeatherDisplay:10.37,2013-12-13 09:22:00,
2013-12-13 04:27:00,20.0,20.0,30.48,WSW,247,0.0,0.0,100,0.00,,SKC,0.00,WeatherDisplay:10.37,2013-12-13 09:27:00,
2013-12-13 04:32:00,20.0,20.0,30.48,WSW,247,0.0,0.0,100,0.00,,SKC,0.00,WeatherDisplay:10.37,2013-12-13 09:32:00,
2013-12-13 04:37:00,20.0,20.0,30.48,WSW,247,0.0,0.0,100,0.00,,SKC,0.00,WeatherDisplay:10.37,2013-12-13 09:37:00,
2013-12-13 04:42:00,20.0,20.0,30.48,WSW,247,0.0,0.0,100,0.00,,SKC,0.00,WeatherDisplay:10.37,2013-12-13 09:42:00,
2013-12-13 04:47:00,20.0,20.0,30.48,WSW,247,1.2,1.2,100,0.00,,SKC,0.00,WeatherDisplay:10.37,2013-12-13 09:47:00,
2013-12-13 04:52:00,20.0,20.0,30.48,WSW,247,2.3,0.0,100,0.00,,SKC,0.00,WeatherDisplay:10.37,2013-12-13 09:52:00,
2013-12-13 04:57:00,21.0,21.0,30.48,WSW,247,1.2,1.2,100,0.00,,SKC,0.00,WeatherDisplay:10.37,2013-12-13 09:57:00,
2013-12-13 05:02:00,21.0,21.0,30.48,WSW,247,3.5,3.5,100,0.00,,SKC,0.00,WeatherDisplay:10.37,2013-12-13 10:02:00,
2013-12-13 05:07:00,21.0,21.0,30.48,WSW,247,3.5,3.5,100,0.00,,SKC,0.00,WeatherDisplay:10.37,2013-12-13 10:07:00,
2013-12-13 05:12:00,21.0,21.0,30.48,WSW,247,2.3,2.3,100,0.00,,SKC,0.00,WeatherDisplay:10.37,2013-12-13 10:12:00,
2013-12-13 05:17:00,21.0,21.0,30.48,WSW,247,3.5,3.5,100,0.00,,SKC,0.00,WeatherDisplay:10.37,2013-12-13 10:17:00,
2013-12-13 05:22:00,21.0,21.0,30.48,WSW,247,2.3,2.3,100,0.00,,SKC,0.00,WeatherDisplay:10.37,2013-12-13 10:22:00,
2013-12-13 05:27:00,21.0,21.0,30.49,WSW,247,3.0,3.0,100,0.00,,SKC,0.00,WeatherDisplay:10.37,2013-12-13 10:27:00,
2013-12-13 05:32:00,21.0,21.0,30.49,WSW,247,3.5,3.5,100,0.00,,SKC,0.00,WeatherDisplay:10.37,2013-12-13 10:32:00,
2013-12-13 05:37:00,21.0,21.0,30.49,WSW,247,2.3,2.3,100,0.00,,SKC,0.00,WeatherDisplay:10.37,2013-12-13 10:37:00,
2013-12-13 05:42:00,22.0,22.0,30.49,WSW,247,3.5,3.5,100,0.00,,SKC,0.00,WeatherDisplay:10.37,2013-12-13 10:42:00,
2013-12-13 05:47:00,22.0,22.0,30.49,WSW,247,3.5,3.5,100,0.00,,SKC,0.00,WeatherDisplay:10.37,2013-12-13 10:47:00,
2013-12-13 05:52:00,22.0,22.0,30.49,WSW,247,2.3,2.3,100,0.00,,SKC,0.00,WeatherDisplay:10.37,2013-12-13 10:52:00,
2013-12-13 05:57:00,23.0,22.5,30.49,WSW,247,1.2,1.2,98,0.00,CLR,SKC,0.00,WeatherDisplay:10.37,2013-12-13 10:57:00,
2013-12-13 06:02:00,22.0,21.5,30.49,WSW,247,2.3,2.3,98,0.00,CLR,SKC,0.00,WeatherDisplay:10.37,2013-12-13 11:02:00,
2013-12-13 06:07:00,23.0,22.0,30.49,WSW,247,0.0,0.0,96,0.00,CLR,SKC,0.00,WeatherDisplay:10.37,2013-12-13 11:07:00,
2013-12-13 06:12:00,22.0,21.3,30.49,WSW,247,2.0,2.0,97,0.00,CLR,SKC,0.00,WeatherDisplay:10.37,2013-12-13 11:12:00,
2013-12-13 06:17:00,23.0,21.5,30.48,WSW,247,0.0,0.0,94,0.00,CLR,SKC,0.00,WeatherDisplay:10.37,2013-12-13 11:17:00,
2013-12-13 06:22:00,23.0,22.3,30.48,WSW,247,0.0,0.0,97,0.00,CLR,SKC,0.00,WeatherDisplay:10.37,2013-12-13 11:22:00,
2013-12-13 06:27:00,23.0,21.0,30.48,WSW,247,1.2,0.0,92,0.00,CLR,SKC,0.00,WeatherDisplay:10.37,2013-12-13 11:27:00,
2013-12-13 06:32:00,23.0,21.8,30.48,WSW,247,2.3,2.3,95,0.00,CLR,SKC,0.00,WeatherDisplay:10.37,2013-12-13 11:32:00,
2013-12-13 06:37:00,23.0,22.3,30.49,WSW,247,2.3,2.3,97,0.00,CLR,SKC,0.00,WeatherDisplay:10.37,2013-12-13 11:37:00,
2013-12-13 06:42:00,22.0,21.5,30.49,WSW,247,0.0,0.0,98,0.00,CLR,SKC,0.00,WeatherDisplay:10.37,2013-12-13 11:42:00,
2013-12-13 06:47:00,22.0,21.8,30.49,WSW,247,1.2,1.2,99,0.00,,SKC,0.00,WeatherDisplay:10.37,2013-12-13 11:47:00,
2013-12-13 06:52:00,22.0,22.0,30.49,WSW,247,2.3,2.3,100,0.00,,SKC,0.00,WeatherDisplay:10.37,2013-12-13 11:52:00,
2013-12-13 06:57:00,22.0,21.5,30.49,WSW,247,0.0,0.0,98,0.00,CLR,SKC,0.00,WeatherDisplay:10.37,2013-12-13 11:57:00,
2013-12-13 07:02:00,22.0,21.8,30.49,WSW,247,2.3,2.3,99,0.00,CLR,SKC,0.00,WeatherDisplay:10.37,2013-12-13 12:02:00,
2013-12-13 07:07:00,22.0,22.0,30.49,WSW,247,0.0,0.0,100,0.00,,SKC,0.00,WeatherDisplay:10.37,2013-12-13 12:07:00,
2013-12-13 07:12:00,21.0,21.0,30.49,WSW,247,0.0,0.0,100,0.00,,SKC,0.00,WeatherDisplay:10.37,2013-12-13 12:12:00,
2013-12-13 07:17:00,22.0,21.8,30.49,WSW,247,2.3,2.3,99,0.00,,SKC,0.00,WeatherDisplay:10.37,2013-12-13 12:17:00,
2013-12-13 07:22:00,21.0,21.0,30.49,WSW,247,2.3,2.3,100,0.00,,SKC,0.00,WeatherDisplay:10.37,2013-12-13 12:22:00,
2013-12-13 07:24:00,21.0,21.0,30.49,WSW,247,2.3,2.3,100,0.00,,SKC,0.00,WeatherDisplay:10.37,2013-12-13 12:24:00,
2013-12-13 07:29:00,21.0,21.0,30.50,WSW,247,2.3,2.3,100,0.00,,SKC,0.00,WeatherDisplay:10.37,2013-12-13 12:29:00,
2013-12-13 07:34:00,21.0,21.0,30.50,WSW,247,0.0,0.0,100,0.00,,SKC,0.00,WeatherDisplay:10.37,2013-12-13 12:34:00,
2013-12-13 07:39:00,21.0,21.0,30.50,WSW,247,2.3,2.3,100,0.00,,SKC,0.00,WeatherDisplay:10.37,2013-12-13 12:39:00,
2013-12-13 07:44:00,21.0,21.0,30.50,WSW,247,1.0,1.0,100,0.00,,SKC,0.00,WeatherDisplay:10.37,2013-12-13 12:44:00,
2013-12-13 07:49:00,22.0,22.0,30.50,WSW,247,1.2,1.2,100,0.00,,SKC,0.00,WeatherDisplay:10.37,2013-12-13 12:49:00,
2013-12-13 07:54:00,22.0,22.0,30.50,WSW,247,2.3,2.3,100,0.00,,SKC,0.00,WeatherDisplay:10.37,2013-12-13 12:54:00,
2013-12-13 07:59:00,23.0,22.8,30.49,WSW,247,3.5,3.5,99,0.00,,SKC,0.00,WeatherDisplay:10.37,2013-12-13 12:59:00,
2013-12-13 08:04:00,24.0,23.5,30.49,WSW,247,2.3,2.3,98,0.00,CLR,SKC,0.00,WeatherDisplay:10.37,2013-12-13 13:04:00,
2013-12-13 08:09:00,25.0,24.8,30.47,WSW,247,2.3,2.3,99,0.00,CLR,SKC,0.00,WeatherDisplay:10.37,2013-12-13 13:09:00,
2013-12-13 08:14:00,25.0,24.8,30.47,WSW,247,1.2,1.2,99,0.00,CLR,SKC,0.00,WeatherDisplay:10.37,2013-12-13 13:14:00,
2013-12-13 08:19:00,26.0,25.8,30.46,WSW,247,0.0,0.0,99,0.00,CLR,SKC,0.00,WeatherDisplay:10.37,2013-12-13 13:19:00,
2013-12-13 08:24:00,27.0,26.3,30.46,WSW,247,0.0,0.0,97,0.00,CLR,SKC,0.00,WeatherDisplay:10.37,2013-12-13 13:24:00,
2013-12-13 08:29:00,29.0,27.7,30.44,WSW,247,0.0,0.0,95,0.00,CLR,SKC,0.00,WeatherDisplay:10.37,2013-12-13 13:29:00,
2013-12-13 08:34:00,30.0,28.2,30.44,WSW,247,0.0,0.0,93,0.00,CLR,SKC,0.00,WeatherDisplay:10.37,2013-12-13 13:34:00,
2013-12-13 08:39:00,31.0,27.6,30.43,WSW,247,0.0,0.0,87,0.00,CLR,SKC,0.00,WeatherDisplay:10.37,2013-12-13 13:39:00,
2013-12-13 08:44:00,32.0,28.0,30.43,WSW,247,2.3,2.3,85,0.00,CLR,SKC,0.00,WeatherDisplay:10.37,2013-12-13 13:44:00,
2013-12-13 08:49:00,33.0,27.5,30.42,WSW,247,2.3,2.3,80,0.00,CLR,SKC,0.00,WeatherDisplay:10.37,2013-12-13 13:49:00,
2013-12-13 08:54:00,33.0,25.6,30.42,WSW,247,3.5,3.5,74,0.00,CLR,SKC,0.00,WeatherDisplay:10.37,2013-12-13 13:54:00,
2013-12-13 08:59:00,34.0,25.9,30.41,WSW,247,3.5,3.5,72,0.00,CLR,SKC,0.00,WeatherDisplay:10.37,2013-12-13 13:59:00,
2013-12-13 09:04:00,34.0,24.5,30.41,WSW,247,3.5,3.5,68,0.00,CLR,SKC,0.00,WeatherDisplay:10.37,2013-12-13 14:04:00,
2013-12-13 09:09:00,35.0,24.8,30.41,SW,225,3.5,3.5,66,0.00,CLR,SKC,0.00,WeatherDisplay:10.37,2013-12-13 14:09:00,
2013-12-13 09:14:00,36.0,26.1,30.41,SW,225,3.5,3.5,67,0.00,CLR,SKC,0.00,WeatherDisplay:10.37,2013-12-13 14:14:00,
2013-12-13 09:19:00,36.0,24.6,30.40,West,270,4.6,4.6,63,0.00,CLR,SKC,0.00,WeatherDisplay:10.37,2013-12-13 14:19:00,
2013-12-13 09:24:00,36.0,24.2,30.40,West,270,3.5,3.5,62,0.00,CLR,SKC,0.00,WeatherDisplay:10.37,2013-12-13 14:24:00,
2013-12-13 09:29:00,36.0,23.0,30.41,WSW,247,4.6,4.6,59,0.00,CLR,SKC,0.00,WeatherDisplay:10.37,2013-12-13 14:29:00,
2013-12-13 09:34:00,37.0,23.2,30.41,WSW,247,4.6,4.6,57,0.00,CLR,SKC,0.00,WeatherDisplay:10.37,2013-12-13 14:34:00,
2013-12-13 09:39:00,37.0,22.3,30.40,West,270,5.0,5.0,55,0.00,CLR,SKC,0.00,WeatherDisplay:10.37,2013-12-13 14:39:00,
2013-12-13 09:44:00,37.0,21.4,30.40,West,270,5.8,5.8,53,0.00,CLR,SKC,0.00,WeatherDisplay:10.37,2013-12-13 14:44:00,
2013-12-13 09:49:00,37.0,21.4,30.41,West,270,4.6,4.6,53,0.00,CLR,SKC,0.00,WeatherDisplay:10.37,2013-12-13 14:49:00,
2013-12-13 09:54:00,38.0,21.9,30.41,WSW,247,5.0,5.0,52,0.00,CLR,SKC,0.00,WeatherDisplay:10.37,2013-12-13 14:54:00,
2013-12-13 09:59:00,38.0,21.0,30.40,West,270,6.0,6.0,50,0.00,CLR,SKC,0.00,WeatherDisplay:10.37,2013-12-13 14:59:00,
2013-12-13 10:04:00,38.0,21.5,30.40,SW,225,4.6,4.6,51,0.00,CLR,SKC,0.00,WeatherDisplay:10.37,2013-12-13 15:04:00,
2013-12-13 10:09:00,39.0,22.8,30.40,WSW,247,5.8,5.8,52,0.00,CLR,SKC,0.00,WeatherDisplay:10.37,2013-12-13 15:09:00,
2013-12-13 10:14:00,39.0,22.4,30.40,West,270,8.1,8.1,51,0.00,CLR,SKC,0.00,WeatherDisplay:10.37,2013-12-13 15:14:00,
2013-12-13 10:19:00,39.0,22.4,30.39,SW,225,4.6,4.6,51,0.00,CLR,SKC,0.00,WeatherDisplay:10.37,2013-12-13 15:19:00,
2013-12-13 10:24:00,40.0,21.9,30.39,SSW,202,6.9,6.9,48,0.00,CLR,SKC,0.00,WeatherDisplay:10.37,2013-12-13 15:24:00,
2013-12-13 10:29:00,40.0,22.4,30.39,West,270,6.9,6.9,49,0.00,CLR,SKC,0.00,WeatherDisplay:10.37,2013-12-13 15:29:00,
2013-12-13 10:34:00,41.0,22.8,30.39,West,270,6.9,6.9,48,0.00,CLR,SKC,0.00,WeatherDisplay:10.37,2013-12-13 15:34:00,
2013-12-13 10:39:00,41.0,24.2,30.39,WSW,247,3.5,3.5,51,0.00,CLR,SKC,0.00,WeatherDisplay:10.37,2013-12-13 15:39:00,
2013-12-13 10:44:00,42.0,21.6,30.39,WSW,247,8.1,8.1,44,0.00,CLR,SKC,0.00,WeatherDisplay:10.37,2013-12-13 15:44:00,
2013-12-13 10:49:00,42.0,21.6,30.38,WSW,247,5.8,5.8,44,0.00,CLR,SKC,0.00,WeatherDisplay:10.37,2013-12-13 15:49:00,
2013-12-13 10:54:00,43.0,22.5,30.38,WSW,247,7.0,7.0,44,0.00,CLR,SKC,0.00,WeatherDisplay:10.37,2013-12-13 15:54:00,
2013-12-13 10:59:00,43.0,20.9,30.38,WSW,247,6.9,6.9,41,0.00,CLR,SKC,0.00,WeatherDisplay:10.37,2013-12-13 15:59:00,
2013-12-13 11:04:00,43.0,20.9,30.38,West,270,8.1,8.1,41,0.00,CLR,SKC,0.00,WeatherDisplay:10.37,2013-12-13 16:04:00,
2013-12-13 11:09:00,44.0,22.4,30.37,WSW,247,6.9,6.9,42,0.00,CLR,SKC,0.00,WeatherDisplay:10.37,2013-12-13 16:09:00,
2013-12-13 11:14:00,44.0,22.4,30.37,WSW,247,5.8,5.8,42,0.00,CLR,SKC,0.00,WeatherDisplay:10.37,2013-12-13 16:14:00,
2013-12-13 11:19:00,44.0,22.4,30.37,WSW,247,8.1,8.1,42,0.00,CLR,SKC,0.00,WeatherDisplay:10.37,2013-12-13 16:19:00,
2013-12-13 11:24:00,44.0,21.2,30.37,WSW,247,9.2,9.2,40,0.00,CLR,SKC,0.00,WeatherDisplay:10.37,2013-12-13 16:24:00,
2013-12-13 11:29:00,44.0,22.4,30.36,West,270,6.9,6.9,42,0.00,CLR,SKC,0.00,WeatherDisplay:10.37,2013-12-13 16:29:00,
2013-12-13 11:34:00,45.0,22.1,30.36,WNW,292,8.1,8.1,40,0.00,CLR,SKC,0.00,WeatherDisplay:10.37,2013-12-13 16:34:00,
2013-12-13 11:39:00,45.0,22.7,30.35,West,270,8.1,8.1,41,0.00,CLR,SKC,0.00,WeatherDisplay:10.37,2013-12-13 16:39:00,
2013-12-13 11:44:00,45.0,22.1,30.35,WSW,247,8.1,8.1,40,0.00,CLR,SKC,0.00,WeatherDisplay:10.37,2013-12-13 16:44:00,
2013-12-13 11:49:00,45.0,22.1,30.34,West,270,8.1,8.1,40,0.00,CLR,SKC,0.00,WeatherDisplay:10.37,2013-12-13 16:49:00,
2013-12-13 11:54:00,45.0,21.5,30.34,WSW,247,8.1,8.1,39,0.00,CLR,SKC,0.00,WeatherDisplay:10.37,2013-12-13 16:54:00,
2013-12-13 11:59:00,45.0,21.5,30.33,West,270,5.0,5.0,39,0.00,CLR,SKC,0.00,WeatherDisplay:10.37,2013-12-13 16:59:00,
2013-12-13 12:04:00,46.0,21.8,30.33,West,270,6.9,6.9,38,0.00,CLR,SKC,0.00,WeatherDisplay:10.37,2013-12-13 17:04:00,
2013-12-13 12:09:00,47.0,22.0,30.33,WNW,292,5.8,5.8,37,0.00,CLR,SKC,0.00,WeatherDisplay:10.37,2013-12-13 17:09:00,
2013-12-13 12:14:00,47.0,21.4,30.33,WSW,247,9.2,9.2,36,0.00,CLR,SKC,0.00,WeatherDisplay:10.37,2013-12-13 17:14:00,
2013-12-13 12:19:00,47.0,22.7,30.32,West,270,7.0,7.0,38,0.00,CLR,SKC,0.00,WeatherDisplay:10.37,2013-12-13 17:19:00,
2013-12-13 12:24:00,47.0,22.0,30.32,WSW,247,6.9,6.9,37,0.00,CLR,SKC,0.00,WeatherDisplay:10.37,2013-12-13 17:24:00,
2013-12-13 12:29:00,47.0,21.4,30.31,WNW,292,5.0,5.0,36,0.00,CLR,SKC,0.00,WeatherDisplay:10.37,2013-12-13 17:29:00,
2013-12-13 12:34:00,47.0,22.0,30.31,WSW,247,4.6,4.6,37,0.00,CLR,SKC,0.00,WeatherDisplay:10.37,2013-12-13 17:34:00,
2013-12-13 12:39:00,48.0,22.9,30.31,West,270,6.9,6.9,37,0.00,CLR,SKC,0.00,WeatherDisplay:10.37,2013-12-13 17:39:00,
2013-12-13 12:44:00,48.0,22.3,30.31,SW,225,5.8,5.8,36,0.00,CLR,SKC,0.00,WeatherDisplay:10.37,2013-12-13 17:44:00,
2013-12-13 12:49:00,48.0,20.9,30.30,WSW,247,8.1,8.1,34,0.00,CLR,SKC,0.00,WeatherDisplay:10.37,2013-12-13 17:49:00,
2013-12-13 12:54:00,48.0,22.3,30.30,SE,135,9.2,9.2,36,0.00,CLR,SKC,0.00,WeatherDisplay:10.37,2013-12-13 17:54:00,
2013-12-13 12:59:00,49.0,22.5,30.30,SSE,157,5.8,5.8,35,0.00,CLR,SKC,0.00,WeatherDisplay:10.37,2013-12-13 17:59:00,
2013-12-13 13:04:00,49.0,22.5,30.30,WSW,247,6.9,6.9,35,0.00,CLR,SKC,0.00,WeatherDisplay:10.37,2013-12-13 18:04:00,
2013-12-13 13:09:00,49.0,21.8,30.28,SW,225,6.9,6.9,34,0.00,CLR,SKC,0.00,WeatherDisplay:10.37,2013-12-13 18:09:00,
2013-12-13 13:14:00,49.0,21.8,30.28,SSW,202,6.9,6.9,34,0.00,CLR,SKC,0.00,WeatherDisplay:10.37,2013-12-13 18:14:00,
2013-12-13 13:19:00,49.0,21.8,30.27,West,270,5.8,5.8,34,0.00,CLR,SKC,0.00,WeatherDisplay:10.37,2013-12-13 18:19:00,
2013-12-13 13:24:00,49.0,22.5,30.27,WSW,247,4.6,4.6,35,0.00,CLR,SKC,0.00,WeatherDisplay:10.37,2013-12-13 18:24:00,
2013-12-13 13:29:00,49.0,21.8,30.27,WSW,247,10.4,10.4,34,0.00,CLR,SKC,0.00,WeatherDisplay:10.37,2013-12-13 18:29:00,
2013-12-13 13:34:00,48.0,21.6,30.27,West,270,9.0,9.0,35,0.00,CLR,SKC,0.00,WeatherDisplay:10.37,2013-12-13 18:34:00,
2013-12-13 13:39:00,48.0,20.9,30.27,WSW,247,9.2,9.2,34,0.00,CLR,SKC,0.00,WeatherDisplay:10.37,2013-12-13 18:39:00,
2013-12-13 13:44:00,48.0,21.6,30.27,West,270,5.0,5.0,35,0.00,CLR,SKC,0.00,WeatherDisplay:10.37,2013-12-13 18:44:00,
2013-12-13 13:49:00,49.0,21.8,30.27,West,270,5.8,5.8,34,0.00,CLR,SKC,0.00,WeatherDisplay:10.37,2013-12-13 18:49:00,
2013-12-13 13:54:00,49.0,22.5,30.27,West,270,8.1,8.1,35,0.00,CLR,SKC,0.00,WeatherDisplay:10.37,2013-12-13 18:54:00,
2013-12-13 13:59:00,49.0,22.5,30.26,West,270,3.5,3.5,35,0.00,CLR,SKC,0.00,WeatherDisplay:10.37,2013-12-13 18:59:00,
2013-12-13 14:04:00,49.0,21.8,30.26,SSE,157,6.9,6.9,34,0.00,CLR,SKC,0.00,WeatherDisplay:10.37,2013-12-13 19:04:00,
2013-12-13 14:09:00,50.0,22.0,30.26,SW,225,6.9,6.9,33,0.00,CLR,SKC,0.00,WeatherDisplay:10.37,2013-12-13 19:09:00,
2013-12-13 14:14:00,50.0,22.0,30.26,WSW,247,8.1,8.1,33,0.00,CLR,SKC,0.00,WeatherDisplay:10.37,2013-12-13 19:14:00,
2013-12-13 14:19:00,50.0,22.7,30.26,WNW,292,5.0,5.0,34,0.00,CLR,SKC,0.00,WeatherDisplay:10.37,2013-12-13 19:19:00,
2013-12-13 14:24:00,50.0,22.7,30.26,SSE,157,6.9,6.9,34,0.00,CLR,SKC,0.00,WeatherDisplay:10.37,2013-12-13 19:24:00,
2013-12-13 14:29:00,49.0,21.1,30.25,WSW,247,4.6,4.6,33,0.00,CLR,SKC,0.00,WeatherDisplay:10.37,2013-12-13 19:29:00,
2013-12-13 14:34:00,50.0,22.0,30.25,SSW,202,8.1,8.1,33,0.00,CLR,SKC,0.00,WeatherDisplay:10.37,2013-12-13 19:34:00,
2013-12-13 14:39:00,50.0,22.0,30.26,South,180,6.0,6.0,33,0.00,CLR,SKC,0.00,WeatherDisplay:10.37,2013-12-13 19:39:00,
2013-12-13 14:44:00,50.0,22.0,30.26,SW,225,8.1,8.1,33,0.00,CLR,SKC,0.00,WeatherDisplay:10.37,2013-12-13 19:44:00,
2013-12-13 14:49:00,50.0,22.7,30.27,SSW,202,3.5,3.5,34,0.00,CLR,SKC,0.00,WeatherDisplay:10.37,2013-12-13 19:49:00,
2013-12-13 14:54:00,50.0,23.4,30.27,WSW,247,5.8,5.8,35,0.00,CLR,SKC,0.00,WeatherDisplay:10.37,2013-12-13 19:54:00,
2013-12-13 14:59:00,49.0,21.8,30.27,WSW,247,8.1,8.1,34,0.00,CLR,SKC,0.00,WeatherDisplay:10.37,2013-12-13 19:59:00,
2013-12-13 15:04:00,49.0,22.5,30.27,WSW,247,4.0,4.0,35,0.00,CLR,SKC,0.00,WeatherDisplay:10.37,2013-12-13 20:04:00,
2013-12-13 15:09:00,49.0,22.5,30.27,WSW,247,3.5,3.5,35,0.00,CLR,SKC,0.00,WeatherDisplay:10.37,2013-12-13 20:09:00,
2013-12-13 15:14:00,49.0,22.5,30.27,WSW,247,5.8,5.8,35,0.00,CLR,SKC,0.00,WeatherDisplay:10.37,2013-12-13 20:14:00,
2013-12-13 15:19:00,49.0,23.8,30.27,West,270,4.0,4.0,37,0.00,CLR,SKC,0.00,WeatherDisplay:10.37,2013-12-13 20:19:00,
2013-12-13 15:24:00,48.0,23.6,30.27,South,180,4.6,4.6,38,0.00,CLR,SKC,0.00,WeatherDisplay:10.37,2013-12-13 20:24:00,
2013-12-13 15:29:00,48.0,22.9,30.28,SSW,202,5.8,5.8,37,0.00,CLR,SKC,0.00,WeatherDisplay:10.37,2013-12-13 20:29:00,
2013-12-13 15:34:00,48.0,22.9,30.28,SW,225,4.6,4.6,37,0.00,CLR,SKC,0.00,WeatherDisplay:10.37,2013-12-13 20:34:00,
2013-12-13 15:39:00,48.0,23.6,30.29,SSW,202,3.5,3.5,38,0.00,CLR,SKC,0.00,WeatherDisplay:10.37,2013-12-13 20:39:00,
2013-12-13 15:44:00,48.0,23.6,30.29,SSW,202,2.0,2.0,38,0.00,CLR,SKC,0.00,WeatherDisplay:10.37,2013-12-13 20:44:00,
2013-12-13 15:49:00,47.0,22.7,30.29,SSW,202,3.5,3.5,38,0.00,CLR,SKC,0.00,WeatherDisplay:10.37,2013-12-13 20:49:00,
2013-12-13 15:54:00,47.0,23.3,30.29,SSW,202,3.5,3.5,39,0.00,CLR,SKC,0.00,WeatherDisplay:10.37,2013-12-13 20:54:00,
2013-12-13 15:59:00,47.0,23.3,30.29,SSW,202,3.5,3.5,39,0.00,CLR,SKC,0.00,WeatherDisplay:10.37,2013-12-13 20:59:00,
2013-12-13 16:04:00,47.0,23.9,30.29,SSW,202,3.5,3.5,40,0.00,CLR,SKC,0.00,WeatherDisplay:10.37,2013-12-13 21:04:00,
2013-12-13 16:09:00,47.0,24.5,30.29,SSW,202,3.5,3.5,41,0.00,CLR,SKC,0.00,WeatherDisplay:10.37,2013-12-13 21:09:00,
2013-12-13 16:14:00,46.0,23.6,30.29,SSW,202,0.0,0.0,41,0.00,CLR,SKC,0.00,WeatherDisplay:10.37,2013-12-13 21:14:00,
2013-12-13 16:19:00,46.0,24.2,30.29,SSW,202,0.0,0.0,42,0.00,CLR,SKC,0.00,WeatherDisplay:10.37,2013-12-13 21:19:00,
2013-12-13 16:24:00,45.0,23.3,30.29,SSW,202,0.0,0.0,42,0.00,CLR,SKC,0.00,WeatherDisplay:10.37,2013-12-13 21:24:00,
2013-12-13 16:29:00,45.0,23.8,30.30,SSW,202,1.2,1.2,43,0.00,CLR,SKC,0.00,WeatherDisplay:10.37,2013-12-13 21:29:00,
2013-12-13 16:34:00,44.0,22.9,30.30,SSW,202,0.0,0.0,43,0.00,CLR,SKC,0.00,WeatherDisplay:10.37,2013-12-13 21:34:00,
2013-12-13 16:39:00,44.0,23.5,30.30,SSW,202,2.3,2.3,44,0.00,CLR,SKC,0.00,WeatherDisplay:10.37,2013-12-13 21:39:00,
2013-12-13 16:44:00,44.0,24.0,30.30,SSW,202,2.3,2.3,45,0.00,CLR,SKC,0.00,WeatherDisplay:10.37,2013-12-13 21:44:00,
2013-12-13 16:49:00,43.0,23.1,30.31,SSW,202,0.0,0.0,45,0.00,CLR,SKC,0.00,WeatherDisplay:10.37,2013-12-13 21:49:00,
2013-12-13 16:54:00,43.0,23.6,30.31,SSW,202,0.0,0.0,46,0.00,CLR,SKC,0.00,WeatherDisplay:10.37,2013-12-13 21:54:00,
2013-12-13 16:59:00,42.0,23.2,30.31,SSW,202,0.0,0.0,47,0.00,CLR,SKC,0.00,WeatherDisplay:10.37,2013-12-13 21:59:00,
2013-12-13 17:04:00,42.0,23.7,30.31,SSW,202,0.0,0.0,48,0.00,CLR,SKC,0.00,WeatherDisplay:10.37,2013-12-13 22:04:00,
2013-12-13 17:09:00,41.0,22.8,30.33,SSW,202,0.0,0.0,48,0.00,CLR,SKC,0.00,WeatherDisplay:10.37,2013-12-13 22:09:00,
2013-12-13 17:14:00,41.0,23.8,30.33,SSW,202,0.0,0.0,50,0.00,CLR,SKC,0.00,WeatherDisplay:10.37,2013-12-13 22:14:00,
2013-12-13 17:19:00,40.0,24.7,30.33,SSW,202,0.0,0.0,54,0.00,CLR,SKC,0.00,WeatherDisplay:10.37,2013-12-13 22:19:00,
2013-12-13 17:24:00,40.0,25.6,30.33,SSW,202,0.0,0.0,56,0.00,CLR,SKC,0.00,WeatherDisplay:10.37,2013-12-13 22:24:00,
2013-12-13 17:29:00,39.0,24.6,30.33,SSW,202,0.0,0.0,56,0.00,CLR,SKC,0.00,WeatherDisplay:10.37,2013-12-13 22:29:00,
2013-12-13 17:34:00,38.0,24.9,30.33,SSW,202,0.0,0.0,59,0.00,CLR,SKC,0.00,WeatherDisplay:10.37,2013-12-13 22:34:00,
2013-12-13 17:39:00,37.0,24.8,30.33,SSW,202,0.0,0.0,61,0.00,CLR,SKC,0.00,WeatherDisplay:10.37,2013-12-13 22:39:00,
2013-12-13 17:44:00,37.0,25.2,30.33,SSW,202,0.0,0.0,62,0.00,CLR,SKC,0.00,WeatherDisplay:10.37,2013-12-13 22:44:00,
2013-12-13 17:49:00,37.0,26.3,30.34,SSW,202,0.0,0.0,65,0.00,CLR,SKC,0.00,WeatherDisplay:10.37,2013-12-13 22:49:00,
2013-12-13 17:54:00,37.0,25.9,30.34,SSW,202,0.0,0.0,64,0.00,CLR,SKC,0.00,WeatherDisplay:10.37,2013-12-13 22:54:00,
2013-12-13 17:59:00,37.0,25.6,30.35,SSW,202,0.0,0.0,63,0.00,CLR,SKC,0.00,WeatherDisplay:10.37,2013-12-13 22:59:00,
2013-12-13 18:04:00,37.0,25.9,30.35,SSW,202,0.0,0.0,64,0.00,CLR,SKC,0.00,WeatherDisplay:10.37,2013-12-13 23:04:00,
2013-12-13 18:09:00,36.0,24.6,30.35,SSW,202,0.0,0.0,63,0.00,CLR,SKC,0.00,WeatherDisplay:10.37,2013-12-13 23:09:00,
2013-12-13 18:14:00,36.0,25.0,30.35,SSW,202,0.0,0.0,64,0.00,CLR,SKC,0.00,WeatherDisplay:10.37,2013-12-13 23:14:00,
2013-12-13 18:19:00,36.0,25.4,30.35,SSW,202,0.0,0.0,65,0.00,CLR,SKC,0.00,WeatherDisplay:10.37,2013-12-13 23:19:00,
2013-12-13 18:24:00,36.0,25.4,30.35,SSW,202,0.0,0.0,65,0.00,CLR,SKC,0.00,WeatherDisplay:10.37,2013-12-13 23:24:00,
2013-12-13 18:29:00,36.0,25.4,30.35,SSW,202,0.0,0.0,65,0.00,CLR,SKC,0.00,WeatherDisplay:10.37,2013-12-13 23:29:00,
2013-12-13 18:34:00,35.0,25.1,30.35,SSW,202,0.0,0.0,67,0.00,CLR,SKC,0.00,WeatherDisplay:10.37,2013-12-13 23:34:00,
2013-12-13 18:39:00,35.0,25.5,30.36,SSW,202,0.0,0.0,68,0.00,CLR,SKC,0.00,WeatherDisplay:10.37,2013-12-13 23:39:00,
2013-12-13 18:44:00,35.0,25.1,30.36,SSW,202,0.0,0.0,67,0.00,CLR,SKC,0.00,WeatherDisplay:10.37,2013-12-13 23:44:00,
2013-12-13 18:49:00,35.0,26.2,30.37,SSW,202,0.0,0.0,70,0.00,CLR,SKC,0.00,WeatherDisplay:10.37,2013-12-13 23:49:00,
2013-12-13 18:54:00,34.0,25.6,30.37,SSW,202,0.0,0.0,71,0.00,CLR,SKC,0.00,WeatherDisplay:10.37,2013-12-13 23:54:00,
2013-12-13 18:59:00,34.0,25.6,30.36,SSW,202,2.3,2.3,71,0.00,CLR,SKC,0.00,WeatherDisplay:10.37,2013-12-13 23:59:00,
2013-12-13 19:04:00,34.0,25.9,30.36,SSW,202,0.0,0.0,72,0.00,CLR,SKC,0.00,WeatherDisplay:10.37,2013-12-14 00:04:00,
2013-12-13 19:09:00,34.0,25.9,30.37,SSW,202,0.0,0.0,72,0.00,CLR,SKC,0.00,WeatherDisplay:10.37,2013-12-14 00:09:00,
2013-12-13 19:14:00,34.0,26.6,30.37,SSW,202,2.3,2.3,74,0.00,CLR,SKC,0.00,WeatherDisplay:10.37,2013-12-14 00:14:00,
2013-12-13 19:19:00,34.0,26.6,30.37,SSW,202,3.0,3.0,74,0.00,CLR,SKC,0.00,WeatherDisplay:10.37,2013-12-14 00:19:00,
2013-12-13 19:24:00,33.0,26.6,30.37,SSW,202,2.3,2.3,77,0.00,CLR,SKC,0.00,WeatherDisplay:10.37,2013-12-14 00:24:00,
2013-12-13 19:29:00,33.0,26.6,30.37,SSW,202,0.0,0.0,77,0.00,CLR,SKC,0.00,WeatherDisplay:10.37,2013-12-14 00:29:00,
2013-12-13 19:34:00,33.0,26.9,30.37,SSW,202,0.0,0.0,78,0.00,CLR,SKC,0.00,WeatherDisplay:10.37,2013-12-14 00:34:00,
2013-12-13 19:39:00,32.0,25.6,30.38,SSW,202,0.0,0.0,77,0.00,CLR,SKC,0.00,WeatherDisplay:10.37,2013-12-14 00:39:00,
2013-12-13 19:44:00,32.0,26.5,30.38,SSW,202,2.0,2.0,80,0.00,CLR,SKC,0.00,WeatherDisplay:10.37,2013-12-14 00:44:00,
2013-12-13 19:49:00,32.0,26.5,30.38,SSW,202,2.3,2.3,80,0.00,CLR,SKC,0.00,WeatherDisplay:10.37,2013-12-14 00:49:00,
2013-12-13 19:54:00,32.0,25.9,30.38,SSW,202,2.3,2.3,78,0.00,CLR,SKC,0.00,WeatherDisplay:10.37,2013-12-14 00:54:00,
2013-12-13 19:59:00,32.0,26.5,30.39,SSW,202,1.2,1.2,80,0.00,CLR,SKC,0.00,WeatherDisplay:10.37,2013-12-14 00:59:00,
2013-12-13 20:04:00,32.0,27.1,30.39,SSW,202,1.2,1.2,82,0.00,CLR,SKC,0.00,WeatherDisplay:10.37,2013-12-14 01:04:00,
2013-12-13 20:09:00,32.0,27.1,30.39,SSW,202,0.0,0.0,82,0.00,CLR,SKC,0.00,WeatherDisplay:10.37,2013-12-14 01:09:00,
2013-12-13 20:13:00,32.0,27.1,30.39,SSW,202,0.0,0.0,82,0.00,CLR,SKC,0.00,WeatherDisplay:10.37,2013-12-14 01:13:00,
2013-12-13 20:18:00,32.0,27.1,30.39,SSW,202,0.0,0.0,82,0.00,CLR,SKC,0.00,WeatherDisplay:10.37,2013-12-14 01:18:00,
2013-12-13 20:23:00,32.0,27.1,30.39,SSW,202,0.0,0.0,82,0.00,CLR,SKC,0.00,WeatherDisplay:10.37,2013-12-14 01:23:00,
2013-12-13 20:28:00,32.0,27.4,30.38,SSW,202,1.2,1.2,83,0.00,CLR,SKC,0.00,WeatherDisplay:10.37,2013-12-14 01:28:00,
2013-12-13 20:33:00,33.0,27.8,30.38,SSW,202,0.0,0.0,81,0.00,CLR,SKC,0.00,WeatherDisplay:10.37,2013-12-14 01:33:00,
2013-12-13 20:38:00,33.0,27.2,30.38,SSW,202,2.3,2.3,79,0.00,CLR,SKC,0.00,WeatherDisplay:10.37,2013-12-14 01:38:00,
2013-12-13 20:43:00,33.0,27.2,30.38,SSW,202,2.3,2.3,79,0.00,CLR,SKC,0.00,WeatherDisplay:10.37,2013-12-14 01:43:00,
2013-12-13 20:48:00,33.0,28.1,30.39,SSW,202,3.5,3.5,82,0.00,CLR,SKC,0.00,WeatherDisplay:10.37,2013-12-14 01:48:00,
2013-12-13 20:53:00,33.0,28.7,30.39,SSW,202,3.5,3.5,84,0.00,CLR,SKC,0.00,WeatherDisplay:10.37,2013-12-14 01:53:00,
2013-12-13 20:58:00,33.0,28.7,30.39,SSW,202,0.0,0.0,84,0.00,CLR,SKC,0.00,WeatherDisplay:10.37,2013-12-14 01:58:00,
2013-12-13 21:03:00,34.0,28.8,30.39,SSW,202,2.3,2.3,81,0.00,CLR,SKC,0.00,WeatherDisplay:10.37,2013-12-14 02:03:00,
2013-12-13 21:08:00,35.0,28.5,30.39,SSW,202,0.0,0.0,77,0.00,CLR,SKC,0.00,WeatherDisplay:10.37,2013-12-14 02:08:00,
2013-12-13 21:13:00,35.0,27.9,30.39,SSW,202,0.0,0.0,75,0.00,CLR,SKC,0.00,WeatherDisplay:10.37,2013-12-14 02:13:00,
2013-12-13 21:18:00,36.0,28.2,30.38,SSW,202,1.2,1.2,73,0.00,CLR,SKC,0.00,WeatherDisplay:10.37,2013-12-14 02:18:00,
2013-12-13 21:23:00,36.0,27.8,30.38,SSW,202,1.2,1.2,72,0.00,CLR,SKC,0.00,WeatherDisplay:10.37,2013-12-14 02:23:00,
2013-12-13 21:28:00,36.0,28.5,30.37,SSW,202,3.5,3.5,74,0.00,CLR,SKC,0.00,WeatherDisplay:10.37,2013-12-14 02:28:00,
2013-12-13 21:33:00,37.0,29.5,30.37,SSW,202,3.5,3.5,74,0.00,CLR,SKC,0.00,WeatherDisplay:10.37,2013-12-14 02:33:00,
2013-12-13 21:38:00,37.0,28.8,30.37,SSW,202,0.0,0.0,72,0.00,CLR,SKC,0.00,WeatherDisplay:10.37,2013-12-14 02:38:00,
2013-12-13 21:43:00,37.0,28.8,30.37,SSW,202,0.0,0.0,72,0.00,CLR,SKC,0.00,WeatherDisplay:10.37,2013-12-14 02:43:00,
2013-12-13 21:48:00,37.0,29.5,30.37,SSW,202,2.3,2.3,74,0.00,CLR,SKC,0.00,WeatherDisplay:10.37,2013-12-14 02:48:00,
2013-12-13 21:53:00,37.0,29.8,30.37,SSW,202,2.3,2.3,75,0.00,CLR,SKC,0.00,WeatherDisplay:10.37,2013-12-14 02:53:00,
2013-12-13 21:58:00,37.0,30.1,30.37,SSW,202,1.2,0.0,76,0.00,CLR,SKC,0.00,WeatherDisplay:10.37,2013-12-14 02:58:00,
2013-12-13 22:03:00,37.0,30.1,30.37,SSW,202,3.5,3.5,76,0.00,CLR,SKC,0.00,WeatherDisplay:10.37,2013-12-14 03:03:00,
2013-12-13 22:08:00,37.0,30.1,30.36,South,180,1.2,1.3,76,0.00,CLR,SKC,0.00,WeatherDisplay:10.37,2013-12-14 03:08:00,
2013-12-13 22:13:00,37.0,30.1,30.36,South,180,1.2,0.0,76,0.00,CLR,SKC,0.00,WeatherDisplay:10.37,2013-12-14 03:13:00,
2013-12-13 22:18:00,37.0,30.1,30.37,South,180,0.0,0.0,76,0.00,CLR,SKC,0.00,WeatherDisplay:10.37,2013-12-14 03:18:00,
2013-12-13 22:23:00,37.0,29.8,30.37,South,180,0.0,0.0,75,0.00,CLR,SKC,0.00,WeatherDisplay:10.37,2013-12-14 03:23:00,
2013-12-13 22:28:00,37.0,29.8,30.37,South,180,0.0,0.0,75,0.00,CLR,SKC,0.00,WeatherDisplay:10.37,2013-12-14 03:28:00,
2013-12-13 22:33:00,37.0,30.1,30.37,South,180,0.0,0.0,76,0.00,CLR,SKC,0.00,WeatherDisplay:10.37,2013-12-14 03:33:00,
2013-12-13 22:38:00,37.0,30.1,30.37,SSW,202,3.0,3.0,76,0.00,CLR,SKC,0.00,WeatherDisplay:10.37,2013-12-14 03:38:00,
2013-12-13 22:43:00,37.0,30.1,30.37,SSW,202,1.0,0.0,76,0.00,CLR,SKC,0.00,WeatherDisplay:10.37,2013-12-14 03:43:00,
2013-12-13 22:48:00,37.0,30.1,30.37,SSW,202,0.0,0.0,76,0.00,CLR,SKC,0.00,WeatherDisplay:10.37,2013-12-14 03:48:00,
2013-12-13 22:53:00,37.0,30.1,30.37,SSW,202,2.0,2.0,76,0.00,CLR,SKC,0.00,WeatherDisplay:10.37,2013-12-14 03:53:00,
2013-12-13 22:58:00,37.0,30.1,30.37,SSW,202,1.2,1.2,76,0.00,CLR,SKC,0.00,WeatherDisplay:10.37,2013-12-14 03:58:00,
2013-12-13 23:03:00,37.0,30.1,30.37,SSW,202,1.2,1.2,76,0.00,CLR,SKC,0.00,WeatherDisplay:10.37,2013-12-14 04:03:00,
2013-12-13 23:08:00,37.0,29.5,30.37,SSW,202,1.2,1.2,74,0.00,CLR,SKC,0.00,WeatherDisplay:10.37,2013-12-14 04:08:00,
2013-12-13 23:13:00,37.0,29.5,30.37,SSW,202,1.0,1.0,74,0.00,CLR,SKC,0.00,WeatherDisplay:10.37,2013-12-14 04:13:00,
2013-12-13 23:18:00,37.0,29.5,30.37,SSW,202,1.2,1.2,74,0.00,CLR,SKC,0.00,WeatherDisplay:10.37,2013-12-14 04:18:00,
2013-12-13 23:23:00,37.0,30.1,30.37,SSW,202,1.2,1.2,76,0.00,CLR,SKC,0.00,WeatherDisplay:10.37,2013-12-14 04:23:00,
2013-12-13 23:28:00,37.0,30.1,30.36,SSW,202,3.0,3.0,76,0.00,CLR,SKC,0.00,WeatherDisplay:10.37,2013-12-14 04:28:00,
2013-12-13 23:33:00,37.0,30.1,30.36,SSE,157,0.0,0.0,76,0.00,CLR,SKC,0.00,WeatherDisplay:10.37,2013-12-14 04:33:00,
2013-12-13 23:38:00,37.0,30.1,30.36,SSE,157,0.0,0.0,76,0.00,CLR,SKC,0.00,WeatherDisplay:10.37,2013-12-14 04:38:00,
2013-12-13 23:43:00,37.0,30.1,30.36,South,180,0.0,0.3,76,0.00,CLR,SKC,0.00,WeatherDisplay:10.37,2013-12-14 04:43:00,
2013-12-13 23:48:00,37.0,30.1,30.37,South,180,0.0,0.0,76,0.00,CLR,SKC,0.00,WeatherDisplay:10.37,2013-12-14 04:48:00,
2013-12-13 23:53:00,37.0,30.5,30.37,South,180,0.0,0.0,77,0.00,CLR,SKC,0.00,WeatherDisplay:10.37,2013-12-14 04:53:00,
2013-12-13 23:58:00,37.0,30.8,30.37,South,180,0.0,0.0,78,0.00,CLR,SKC,0.00,WeatherDisplay:10.37,2013-12-14 04:58:00,